www.pogodaiklimat.ru

ПОГОДА в Редмонде, OR

  • Прогноз погоды в Редмонде
  • Монитор погоды в Редмонде
  • Климат в Редмонде

АРХИВ ПОГОДЫ в Редмонде

Время (UTC), дата Ветер
(напр.,м/с)
 
Видим.   Явления Облачность Т
(С)
Тd
(С)
f
(%)
Тe
(С)
Тes
(С)
Комфортность

P
(гПа)

Po
(гПа)
Тmin
(С)
Tmax
(С)
R
(мм)
SD
(см)
23:56 24.03 ЮВ  16 км    ясно  +15.0  -12.8  13  +14  +17    1018.9  910.2         
00:56 25.03 ЮВ  16 км    ясно  +12.2  -9.4  21  +11  +12    1019.1  910.2         
01:56 25.03 ЮЗ  16 км    ясно  +6.7  -5.6  41  +4  +4    1019.7  910.2         
02:56 25.03 Ю  16 км    ясно  +6.1  -4.4  47  +3  +3    1020.2  910.8         
03:56 25.03 Ю  16 км    ясно  +6.7  -2.8  51  +3  +3    1020.0  911.1         
04:56 25.03 ЮВ  16 км    ясно  +6.1  -2.8  53  +3  +3    1019.9  911.1  +5.6  +15.0     
05:56 25.03 ЮВ  16 км    ясно  +4.4  -2.8  59  +3  +3    1019.4  910.5         
06:56 25.03   16 км    ясно  +2.2  -2.8  69  +1  +1    1019.0  910.2         
07:56 25.03   16 км    2/0 3600 м
[средняя] 
+0.6  -3.3  75  -0  -0    1018.9  910.2         
08:56 25.03 ЮВ  16 км    ясно  +3.3  -1.7  70  0  0    1018.3  909.9         
09:56 25.03 ЮВ  16 км    2/0 3600 м
[средняя] 
+3.9  -1.1  70  +1  +1    1017.3  909.3         
10:56 25.03   16 км    5/0 3600 м
[средняя] 
+2.8  -1.7  72  +2  +2    1016.2  908.0  0.0  +6.1     
11:56 25.03 ЮВ  16 км    2/0 3600 м
[средняя] 
+5.0  -2.2  60  +2  +2    1014.8  907.1         
12:56 25.03   16 км    ясно  +4.4  -2.2  62  +4  +4    1014.6  906.5         
13:56 25.03 З  16 км    2/0 3600 м
[средняя] 
+3.9  -1.1  70  0  0    1015.3  906.8         
14:56 25.03 ЮВ  16 км    10/0 3000 м
[средняя] 
+6.1  -2.2  55  +3  +4    1015.0  906.5         
15:56 25.03 нст  16 км    10/0 3000 м
[средняя] 
+8.3  -2.2  48  +6  +7    1013.3  905.3         
16:56 25.03 ЮВ  16 км    10/0 3300 м
[средняя] 
+10.0  -2.2  42  +8  +9    1012.8  905.0  +2.2  +10.0     
17:56 25.03 ЮВ  8
{13} 
16 км    5/0 3000 м
[средняя] 
+12.2  -1.7  38  +9  +10    1011.6  903.8         
18:56 25.03 ЮЗ  16 км    5/0 2700 м
[средняя] 
+12.2  -1.1  40  +11  +15    1011.4  903.5         
19:56 25.03 Ю  8
{13} 
16 км    10/0 2400 м
[средняя] 
+13.3  -3.3  31  +11  +11    1011.4  903.5         
20:56 25.03 Ю  9
{15} 
16 км    10/0 2100 м
[средняя] 
+12.8  -1.7  37  +10  +10    1011.4  903.8         
21:56 25.03 ЮЗ  10
{13} 
16 км    ясно  +12.2  0.0  43  +9  +9    1011.4  903.8         
22:56 25.03 Ю  7
{13} 
16 км    ясно  +11.7  +0.6  46  +9  +10    1011.5  903.8  +10.0  +14.4     
23:56 25.03 Ю  8
{11} 
16 км    ясно  +10.6  +0.6  50  +7  +7    1011.9  904.1         
00:56 26.03 Ю  7
{10} 
16 км    ясно  +10.0  0.0  50  +7  +7    1012.7  904.7         
01:56 26.03 З  16 км    2/2 1800 м  +7.8  +1.1  63  +5  +5    1013.8  905.6         
02:56 26.03 Ю  16 км    8/8 1800 м  +6.7  +0.6  65  +3  +3    1014.2  905.9         
03:56 26.03 З  16 км    8/5 1800 м
[средняя] 
+6.7  +0.6  65  +3  +3    1015.1  906.8         
04:56 26.03   16 км    10/0 2100 м
[средняя] 
+5.0  +0.6  73  +4  +4    1015.3  907.1  +5.0  +12.2     
05:56 26.03 Ю  16 км    10/0 2700 м
[средняя] 
+5.0  0.0  70  +1  +1    1015.4  907.4         
06:56 26.03   16 км    8/0 2400 м
[средняя] 
+4.4  0.0  73  +4  +4    1016.0  907.7         
07:56 26.03 С  16 км    2/0 2550 м
[средняя] 
+2.2  -0.6  82  -2  -2    1016.5  908.0         
08:56 26.03   16 км    ясно  -0.6  -2.2  89  -2  -2    1016.8  908.0         
09:56 26.03   16 км    ясно  -1.1  -3.3  85  -2  -2    1017.0  908.4         
10:56 26.03   16 км    ясно  -2.8  -4.4  89  -4  -4    1017.5  908.4  -2.8  +5.6     
11:56 26.03   16 км    ясно  -1.7  -3.9  85  -3  -3    1017.8  908.7         
12:56 26.03   16 км    ясно  -2.8  -5.0  85  -4  -4    1018.0  908.7         
13:56 26.03   16 км    ясно  -1.1  -2.8  88  -2  -2    1018.5  909.0         
14:56 26.03 Ю  16 км    ясно  +2.8  -1.1  75  +1  +2    1018.2  909.3         
15:56 26.03   16 км    ясно  +4.4  -1.7  65  +4  +8    1018.1  909.3         
16:56 26.03   16 км    ясно  +6.1  -1.7  57  +6  +14    1017.7  909.0  -4.4  +6.7     
17:56 26.03 Ю  16 км    ясно  +9.4  -1.7  46  +7  +14    1016.8  908.4         
18:56 26.03 Ю  16 км    ясно  +10.6  -3.3  38  +9  +17    1015.9  907.7         
19:56 26.03   16 км    ясно  +12.2  -4.4  31  +12  +29  опасность
простуды 
1015.1  906.8         
20:56 26.03 ЮВ  16 км    ясно  +12.8  -3.9  31  +12  +23  опасность
простуды 
1014.4  905.9         
21:56 26.03   16 км    ясно  +12.8  -4.4  30  +13  +26  опасность
простуды 
1013.9  905.6         
22:56 26.03 С  16 км    2/0 2700 м
[средняя] 
+13.3  -4.4  29  +12  +15    1013.4  905.0  +6.1  +13.9     

 

Местоположение метеостанции Roberts Field Airport: широта 44.2542 долгота -121.1497 высота над уровнем моря 938 м.

В архиве по умолчанию представлена погода в Редмонде за последние 1-2 суток. Обновление информации о фактической погоде в базе происходит ежечасно! Архивные данные за месяц целиком и за предыдущие месяцы Вы можете получить, выбрав интересующий диапазон дат из раскрывающегося списка и нажав кнопку "Ввод!".

Внимание! Архив погоды МЕТАР в базе сайта хранится не более 60 дней. Нет смысла пытаться выбрать более раннюю дату.

Внимание! Время в таблицах - всемирное. Для получения местного времени необходимо прибавить поправку, которая в Редмонде равна -8 ч.

Ветер - указаны скорость ветра в м/с и направление, откуда дует ветер: С - северный, СВ - северо-восточный, В - восточный, ЮВ - юго-восточный, Ю - южный, ЮЗ - юго-западный, З - западный, СЗ - северо-западный.
Видимость - горизонтальная дальность видимости в метрах или километрах. При видимости от 1 до 10 км при отсутствии осадков обычно наблюдается дымка, при ухудшении видимости до 1 км и менее - туман. В сухую погоду видимость может ухудшаться дымом, пылью или мглою.
Атмосферные явления - указаны явления, наблюдавшиеся в указанный момент времени.
Облачность - указаны через наклонную черту верхняя и нижняя облачность в баллах и высота нижней границы облаков в метрах. Внимание: облачность, как и прочие метеорологические величины в США измеряются автоматическими метеостанциями. Указанные значения в баллах носят условный характер и показывают процент времени, в течение которого, в среднем, лазерный луч высотомера отражался от облаков обратно.
T - Температура воздуха - температура, измеренная на высоте 2 м над землей.
Td - Температура точки росы - температура, при понижении до которой содержащийся в воздухе водяной пар достигнет насыщения.
f - Относительная влажность воздуха - влажноcть воздуха, измеренная на высоте 2 м над землей.
Te - Эффективная температура - температура, которую ощущает одетый по сезону человек в тени. Характеристика душности погоды. При расчете учитывается влияние влажности воздуха и скорости ветра на теплоощущения человека.
Tes - Эффективная температура на солнце - температура, которую ощущает человек, с поправкой на солнечный нагрев. Характеристика знойности погоды. Зависит от высоты солнца над горизонтом, облачности и скорости ветра. Ночью, в пасмурную погоду, а также при ветре 12 м/с и более поправка равна нулю.
P - Атмосферное давление - приведенное к уровню моря атмосферное давление.
Po - Атмосферное давление - измеренное на уровне метеостанции атмосферное давление.
Tmin - Минимальная температура - минимум температуры воздуха на высоте 2 м над землей.
Tmax - Максимальная температура - максимум температуры воздуха на высоте 2 м над землей.
R - Количество осадков - Количество выпавших осадков за 3 или 6 часов, мм.
SD - Снежный покров - Высота снежного покрова, см.